Weather in Haverfordwest

United Kingdom     51°47′55″N   4°58′38″W
temp.,
°C
wind,
m/s
gust,
m/s
humid.,
%
clouds,
%
prec.,
mm/h
press.,
hPa
HPBL,
m
16 june, wed
wed1601:00+13s4693100 0.0 1016105
04:00+14s4893100 0.0 1013238
07:00+15s4795100 0.1 1012249
10:00+15s6893100 0.1 1012357
13:00+14wnw4593100 0.3 1012360
16:00+13wnw4480100 0.0 1011332
19:00+13wnw367879 0.0 1011437
22:00+13w357973 0.0 1011343
17 june, thu
thu1701:00+13w4681100 0.0 1011374
04:00+13wnw468358 0.0 1011368
07:00+13nw4685100 0.0 1012342
10:00+14nnw7777100 0.0 1013699
13:00+15nnw557020 0.0 10151004
16:00+15nw556612 0.0 1015899
19:00+14nnw467236 0.0 1017597
22:00+10n3684100 0.0 1018115
18 june, fri
fri1801:00+11n51085100 0.0 1018284
04:00+11n6108893 0.0 1018350
07:00+12nne81184100 0.0 1018541
10:00+13n91174100 0.0 1018705
13:00+14n897193 0.0 1018917
16:00+14n7772100 0.0 1017769
19:00+13n567636 0.0 1017455
22:00+10n46890 0.0 1018153
19 june, sat
sat1901:00+9n2388100 0.0 101887
04:00+9n22885 0.0 101784
07:00+10ese238466 0.0 1016108
10:00+14sse467653 0.0 1016623
13:00+15sse568174 0.1 1014592
16:00+16se5883100 0.5 1012767
19:00+16se8118172 0.6 1010726
22:00+13se6119177 0.0 1008372
20 june, sun
sun2001:00+14ese61089100 0.1 1006397
04:00+13ese41098100 6.8 1002527
07:00+12e4797100 16.2 1000357
10:00+12se5897100 4.8 999460
13:00+16s688599 5.0 999792
16:00+15sse71191100 0.3 998634
19:00+15s69860 0.5 998543
22:00+14sse6119130 0.1 999388